Regional Weather Roundup
Issued by NWS Mt. Holly, NJ

Home | Current Version | Previous Version | Text Only | Print | Product List | Glossary On
Versions: 1 2 3 4 5 6 7 8 9 10 11 12 13 14 15 16 17 18 19 20 21 22 23 24 25 26 27 28 29 30 31 32 33 34 35 36 37 38 39 40 41 42 43 44 45 46 47 48 49 50
000
ASUS41 KPHI 010910
RWRPHI

REGIONAL WEATHER ROUNDUP
NATIONAL WEATHER SERVICE MOUNT HOLLY NJ
400 AM EST SUN FEB 01 2015

NOTE:  "FAIR" INDICATES FEW OR NO CLOUDS BELOW 12,000 FEET WITH NO
SIGNIFICANT WEATHER AND/OR OBSTRUCTIONS TO VISIBILITY.

 * = STATION DOES NOT REPORT PRECIPITATION (E.G. RAIN, SNOW, ETC.)
        OR FOG.

NJZ015>026-011000-
SOUTHERN NEW JERSEY

CITY           SKY/WX    TMP DP  RH WIND       PRES   REMARKS
POMONA         CLEAR     22   9  57 SW6       30.25S WCI  14
RIO GRANDE*    CLEAR     27  12  54 W3        30.27F
MILLVILLE      CLEAR     14   9  80 CALM      30.26S
WRIGHTSTOWN    CLOUDY    21  12  66 SW2       30.21F
MOUNT HOLLY    CLOUDY    22  12  65 SW3       30.24S
TRENTON        CLOUDY    18  10  71 SW3       30.21F

$$
NJZ001>014-011000-
NORTHERN NEW JERSEY

CITY           SKY/WX    TMP DP  RH WIND       PRES   REMARKS
SUSSEX         CLOUDY    10   3  73 CALM      30.16S
ANDOVER*         N/A     15   6  67 S3        30.16F
MORRISTOWN     CLOUDY    16   9  73 CALM      30.20S
NEWARK         MOCLDY    19   9  65 SW7       30.21S WCI  10
TETERBORO      CLOUDY    19   6  57 CALM      30.20F
CALDWELL       CLOUDY    16   5  62 SW3       30.20S
SOMERVILLE     MOCLDY    10   4  76 CALM      30.20F
ALLAIRE*       CLEAR     18   3  53 W6        30.20F WCI   9
TOMS RIVER*    CLEAR     10   9  92 CALM      30.22F

$$
PAZ043-044-047-054-055-060>062-066>071-011000-
EASTERN PENNSYLVANIA

CITY           SKY/WX    TMP DP  RH WIND       PRES   REMARKS
PHILADELPHIA   MOCLDY    24  13  62 W6        30.26S WCI  17
NORTH PHILA    CLOUDY    27  11  51 SW5       30.25S WCI  22
BLUE BELL      CLOUDY    27  14  59 CALM      30.21F
DOYLESTOWN     CLOUDY    21  11  65 SW5       30.19F WCI  15
QUAKERTOWN*    CLOUDY    21  10  63 W3        30.19F
POTTSTOWN      CLOUDY    24  11  57 VRB6      30.22S WCI  17
LANCASTER      CLOUDY    18   9  68 CALM      30.23S
COATESVILLE    CLOUDY    25  14  63 W6        30.21S WCI  18
READING        CLOUDY    22  11  62 CALM      30.21F
ALLENTOWN      CLOUDY    24  12  60 SW9       30.19F WCI  14
MOUNT POCONO   CLOUDY    16   9  74 W9        30.05F WCI   4
HAZLETON       CLOUDY    23  14  68 W8        30.13S WCI  14
WILKES BARRE   CLOUDY    20   9  62 SW7       30.14F WCI  11

$$
DEZALL-MDZ008-012-015-019-020-011000-
DELAWARE AND EASTERN MARYLAND

CITY           SKY/WX    TMP DP  RH WIND       PRES   REMARKS
WILMINGTON     CLEAR     20   9  62 W5        30.26F WCI  13
DOVER          CLEAR     20  15  79 S5        30.27F WCI  13
GEORGETOWN     CLEAR     18  12  77 CALM      30.28F
EASTON         CLEAR     21  17  86 CALM      30.31S
PATUXENT       CLEAR     20  13  74 CALM      30.27F
OCEAN CITY     CLEAR     21  13  71 CALM      30.29S
WALLOPS ISLAND CLEAR     20  14  77 N3        30.29F
CAMBRIDGE      CLEAR     23  18  80 CALM      30.28S
SALISBURY      CLEAR     18  11  74 CALM      30.29S

$$
PAZ001-021-NYZ056-072-MDZ011-DCZ001-011000-
OTHER NEARBY LOCATIONS

CITY           SKY/WX    TMP DP  RH WIND       PRES   REMARKS
HARRISBURG     CLOUDY    17  11  77 CALM      30.23F
STATE COLLEGE  CLOUDY    25  17  69 W8        30.17S WCI  17
WILLIAMSPORT   CLOUDY    22  12  65 W9        30.20F WCI  12
BINGHAMTON     CLOUDY    17  11  77 W7        30.06S WCI   8
NEW YORK CITY  MOCLDY    23   7  50 VRB3      30.21S
BALTIMORE      MOCLDY    18  12  77 CALM      30.26S
WASHINGTON DC  CLOUDY    27  18  69 SW3       30.29S

$$


USA.gov is the U.S. government's official web portal to all federal, state and local government web resources and services.